Retour au catalogue

STARLINK-30468

ActifCommunicationsVLEO
NORAD 57926·PAYLOAD·🇺🇸 United States

Lancé Sep 24, 2023 depuis Cape Canaveral Space Force Station

Loading…

Prochains Passages (prochaines 24 heures)

TLE

FraisSource: CelesTrak SupGP

Époque: Sep 15, 2026, 01:31 UTC

1 57926C 23147P   26258.06368056  .00030397  00000+0  11009-2 0  2585
2 57926  43.0031 338.9975 0001419 265.7437  31.4810 15.27565714    16

Suivez STARLINK-30468 en temps réel avec AllMySat

Download on the App Store